Regional Weather Roundup
Issued by NWS

Home | Current Version | Previous Version | Graphics & Text | Print | Product List | Glossary On
Versions: 1 2 3 4 5 6 7 8 9 10 11 12 13 14 15 16 17 18 19 20 21 22 23 24 25 26 27 28 29 30 31 32 33 34 35 36 37 38 39 40 41 42 43 44 45 46 47 48 49 50
000
ASUS43 KBIS 200702
RWRND

NORTH DAKOTA REGIONAL WEATHER ROUNDUP
NATIONAL WEATHER SERVICE BISMARCK ND
200 AM CDT FRI OCT 20 2017

NOTE: "FAIR" INDICATES FEW OR NO CLOUDS BELOW 12,000 FEET WITH NO
SIGNIFICANT WEATHER AND/OR OBSTRUCTIONS TO VISIBILITY.


NDZ001>003-009>011-017-200800-
NORTHWEST NORTH DAKOTA

CITY           SKY/WX    TMP DP  RH WIND       PRES   REMARKS
WILLISTON      PTCLDY    48  34  58 CALM      29.52F
MINOT          FAIR      54  37  52 SE3       29.56F
MINOT AFB      FAIR      48  35  60 S9        29.55F
$$

NDZ018>021-031>035-040>046-200800-
SOUTHWEST NORTH DAKOTA

CITY           SKY/WX    TMP DP  RH WIND       PRES   REMARKS
BISMARCK       CLEAR     44  37  76 NE10      29.60F
DICKINSON      CLEAR     47  32  56 S8        29.54F
GARRISON         N/A     47  37  68 CALM      29.59F
HETTINGER ARPT CLEAR     49  31  49 VRB3      29.59F
$$

NDZ004>008-012>016-024-026-027-054-200800-
NORTHEAST NORTH DAKOTA

CITY           SKY/WX    TMP DP  RH WIND       PRES   REMARKS
GRAND FORKS    FAIR      48  41  76 S8        29.67F
GRND FRKS AFB  FAIR      44  39  80 S8        29.66F
DEVILS LAKE    FAIR      47  42  83 SE7       29.64F
$$

NDZ022-023-025-028>030-036>039-047>053-200800-
SOUTHEAST NORTH DAKOTA

CITY           SKY/WX    TMP DP  RH WIND       PRES   REMARKS
FARGO          FAIR      58  48  69 S14G24    29.70F
JAMESTOWN      FAIR      50  43  77 S10       29.65F
$$





USA.gov is the U.S. government's official web portal to all federal, state and local government web resources and services.